ASL45X LFPG-LYBE

Flight info

Callsign ASL45X
Flight time 1h 50m
Altitude 37000
Route BUBLI DCT LUVAL DCT BEGAR DCT TRA DCT GAMSA DCT GEDSO DCT VEKEN DCT GORPA DCT KUSIB DCT OKSIG DCT SOMUN L5 ENUPU
Aircraft A319/M-SDE3FGHIRWY/LB1

Departure

Time 2026-05-08 21:44
Airport Charles de Gaulle International Airport (LFPG)

Arrival

Time 2026-05-08 23:34
Airport Belgrade Nikola Tesla Airport (LYBE)
Time Latitude Longitude Altitude Speed Heading
2026-05-08 21:05 49.01704 2.54086 346 ft 0 kts 204°
2026-05-08 21:32 49.01726 2.54100 355 ft 4 kts 202°
2026-05-08 21:32 49.01751 2.54116 356 ft 4 kts 200°
2026-05-08 21:33 49.01776 2.54128 360 ft 4 kts 193°
2026-05-08 21:33 49.01802 2.54132 360 ft 4 kts 148°
2026-05-08 21:33 49.01809 2.54124 362 ft 0 kts 85°
2026-05-08 21:37 49.01809 2.54125 362 ft 1 kts 85°
2026-05-08 21:37 49.01812 2.54180 360 ft 8 kts 85°
2026-05-08 21:37 49.01818 2.54291 362 ft 14 kts 85°
2026-05-08 21:37 49.01830 2.54488 354 ft 22 kts 85°
2026-05-08 21:38 49.01842 2.54726 355 ft 19 kts 85°
2026-05-08 21:38 49.01780 2.54864 360 ft 18 kts 166°
2026-05-08 21:38 49.01631 2.54882 355 ft 25 kts 175°
2026-05-08 21:38 49.01443 2.54906 355 ft 26 kts 175°
2026-05-08 21:39 49.01276 2.54965 358 ft 25 kts 165°
2026-05-08 21:39 49.01102 2.55045 362 ft 27 kts 164°
2026-05-08 21:39 49.00921 2.55124 358 ft 27 kts 164°
2026-05-08 21:39 49.00734 2.55204 355 ft 29 kts 164°
2026-05-08 21:40 49.00531 2.55291 361 ft 32 kts 164°
2026-05-08 21:40 49.00331 2.55378 357 ft 29 kts 164°
2026-05-08 21:40 49.00146 2.55457 354 ft 24 kts 163°
2026-05-08 21:41 48.99918 2.55565 355 ft 13 kts 153°
2026-05-08 21:41 48.99850 2.55676 357 ft 15 kts 115°
2026-05-08 21:41 48.99815 2.55841 362 ft 18 kts 105°
2026-05-08 21:41 48.99799 2.55961 362 ft 11 kts 99°
2026-05-08 21:42 48.99742 2.56031 354 ft 12 kts 176°
2026-05-08 21:42 48.99650 2.56040 354 ft 11 kts 176°
2026-05-08 21:42 48.99612 2.56057 359 ft 3 kts 97°
2026-05-08 21:42 48.99612 2.56066 358 ft 0 kts 88°
2026-05-08 21:43 48.99613 2.56073 357 ft 6 kts 88°
2026-05-08 21:43 48.99634 2.56480 355 ft 73 kts 85°
2026-05-08 21:43 48.99692 2.57559 352 ft 130 kts 85°
2026-05-08 21:44 48.99778 2.59154 546 ft 160 kts 84°
2026-05-08 21:44 48.99866 2.60852 1174 ft 161 kts 85°
2026-05-08 21:44 48.99955 2.62552 1877 ft 160 kts 85°
2026-05-08 21:44 49.00051 2.64301 2307 ft 176 kts 85°
2026-05-08 21:45 49.00158 2.66278 2592 ft 201 kts 86°
2026-05-08 21:45 49.00269 2.68526 3066 ft 223 kts 86°
2026-05-08 21:45 49.00386 2.70990 3610 ft 245 kts 86°
2026-05-08 21:45 49.00523 2.73654 4382 ft 257 kts 86°
2026-05-08 21:46 49.00670 2.76392 5314 ft 263 kts 86°
2026-05-08 21:46 49.00650 2.79206 6215 ft 269 kts 97°
2026-05-08 21:46 49.00398 2.82028 7090 ft 275 kts 100°
2026-05-08 21:46 49.00081 2.84929 7963 ft 280 kts 101°
2026-05-08 21:47 48.99679 2.87864 8826 ft 286 kts 104°
2026-05-08 21:47 48.99202 2.90829 9682 ft 292 kts 105°
2026-05-08 21:47 48.98684 2.93872 10344 ft 305 kts 106°
2026-05-08 21:47 48.98119 2.97109 10630 ft 328 kts 106°
2026-05-08 21:48 48.97510 3.00567 10997 ft 346 kts 106°
2026-05-08 21:48 48.96883 3.04148 11646 ft 353 kts 106°
2026-05-08 21:48 48.96252 3.07777 12381 ft 357 kts 105°
2026-05-08 21:48 48.95620 3.11449 13128 ft 361 kts 105°
2026-05-08 21:49 48.94981 3.15164 13860 ft 365 kts 105°
2026-05-08 21:49 48.94336 3.18908 14506 ft 368 kts 105°
2026-05-08 21:49 48.93677 3.22697 15145 ft 372 kts 105°
2026-05-08 21:49 48.93009 3.26518 15786 ft 376 kts 105°
2026-05-08 21:50 48.92331 3.30384 16421 ft 379 kts 105°
2026-05-08 21:50 48.91655 3.34229 17050 ft 383 kts 105°
2026-05-08 21:50 48.90963 3.38159 17685 ft 387 kts 105°
2026-05-08 21:50 48.90257 3.42180 18330 ft 391 kts 105°
2026-05-08 21:51 48.89562 3.46138 18841 ft 395 kts 105°
2026-05-08 21:51 48.88852 3.50173 19033 ft 396 kts 105°
2026-05-08 21:51 48.88137 3.54211 19087 ft 396 kts 105°
2026-05-08 21:51 48.87412 3.58263 19273 ft 399 kts 105°
2026-05-08 21:52 48.86681 3.62341 19827 ft 401 kts 105°
2026-05-08 21:52 48.85947 3.66458 20369 ft 405 kts 104°
2026-05-08 21:52 48.85209 3.70606 20910 ft 408 kts 104°
2026-05-08 21:52 48.84461 3.74780 21449 ft 412 kts 104°
2026-05-08 21:53 48.83701 3.79006 21960 ft 416 kts 104°
2026-05-08 21:53 48.82936 3.83260 22446 ft 419 kts 103°
2026-05-08 21:53 48.82164 3.87548 22942 ft 423 kts 103°
2026-05-08 21:53 48.81384 3.91872 23410 ft 427 kts 103°
2026-05-08 21:54 48.80603 3.96182 23834 ft 430 kts 103°
2026-05-08 21:54 48.79806 4.00572 24226 ft 434 kts 103°
2026-05-08 21:54 48.78996 4.05003 24603 ft 437 kts 103°
2026-05-08 21:54 48.78179 4.09454 25002 ft 440 kts 103°
2026-05-08 21:55 48.77178 4.13866 25372 ft 446 kts 111°
2026-05-08 21:55 48.75719 4.18043 25745 ft 451 kts 121°
2026-05-08 21:55 48.73914 4.21948 26121 ft 454 kts 124°
2026-05-08 21:56 48.70220 4.29793 26875 ft 461 kts 124°
2026-05-08 21:56 48.68359 4.33760 27239 ft 464 kts 124°
2026-05-08 21:56 48.66484 4.37755 27596 ft 467 kts 124°
2026-05-08 21:56 48.64593 4.41772 27958 ft 470 kts 124°
2026-05-08 21:57 48.62681 4.45814 28318 ft 473 kts 124°
2026-05-08 21:57 48.60763 4.49860 28661 ft 476 kts 124°
2026-05-08 21:57 48.58827 4.53948 29006 ft 479 kts 124°
2026-05-08 21:57 48.56881 4.58054 29327 ft 482 kts 124°
2026-05-08 21:58 48.54923 4.62181 29646 ft 485 kts 124°
2026-05-08 21:58 48.52947 4.66334 29962 ft 488 kts 124°
2026-05-08 21:58 48.50979 4.70462 30251 ft 491 kts 125°
2026-05-08 21:58 48.48975 4.74662 30514 ft 494 kts 125°
2026-05-08 21:59 48.46964 4.78872 30791 ft 496 kts 125°
2026-05-08 21:59 48.44948 4.83091 31098 ft 497 kts 125°
2026-05-08 21:59 48.42926 4.87312 31498 ft 496 kts 126°
2026-05-08 21:59 48.40909 4.91509 31902 ft 495 kts 126°
2026-05-08 22:00 48.38888 4.95703 32298 ft 494 kts 126°
2026-05-08 22:00 48.36870 4.99885 32697 ft 494 kts 126°
2026-05-08 22:00 48.34853 5.04066 33099 ft 493 kts 126°
2026-05-08 22:00 48.32842 5.08225 33500 ft 492 kts 127°
2026-05-08 22:01 48.30936 5.12502 33897 ft 492 kts 120°
2026-05-08 22:01 48.29446 5.17116 34269 ft 492 kts 111°
2026-05-08 22:01 48.28420 5.21947 34604 ft 490 kts 102°
2026-05-08 22:01 48.27683 5.26946 34969 ft 489 kts 101°
2026-05-08 22:02 48.26950 5.31927 35338 ft 488 kts 102°
2026-05-08 22:02 48.26209 5.36897 35718 ft 487 kts 102°
2026-05-08 22:02 48.25468 5.41836 36087 ft 485 kts 102°
2026-05-08 22:02 48.24725 5.46777 36447 ft 484 kts 102°
2026-05-08 22:03 48.23983 5.51706 36793 ft 483 kts 102°
2026-05-08 22:03 48.23243 5.56614 37039 ft 482 kts 102°
2026-05-08 22:03 48.22505 5.61507 37087 ft 480 kts 102°
2026-05-08 22:04 48.21028 5.71256 37084 ft 479 kts 103°
2026-05-08 22:04 48.19540 5.80985 37086 ft 479 kts 103°
2026-05-08 22:05 48.18301 5.89078 37083 ft 480 kts 103°
2026-05-08 22:05 48.16797 5.98809 37084 ft 480 kts 103°
2026-05-08 22:06 48.15278 6.08563 37080 ft 480 kts 103°
2026-05-08 22:06 48.13751 6.18304 37081 ft 481 kts 103°
2026-05-08 22:07 48.12219 6.28054 37076 ft 481 kts 103°
2026-05-08 22:07 48.10677 6.37801 37077 ft 481 kts 103°
2026-05-08 22:08 48.09119 6.47545 37074 ft 482 kts 104°
2026-05-08 22:08 48.07557 6.57291 37081 ft 482 kts 104°
2026-05-08 22:09 48.05988 6.67039 37079 ft 482 kts 104°
2026-05-08 22:09 48.04405 6.76792 37084 ft 483 kts 104°
2026-05-08 22:10 48.02827 6.86536 37084 ft 483 kts 104°
2026-05-08 22:10 48.01241 6.96219 37084 ft 483 kts 104°
2026-05-08 22:11 47.99636 7.05951 37079 ft 483 kts 104°
2026-05-08 22:11 47.98021 7.15710 37080 ft 484 kts 104°
2026-05-08 22:12 47.96390 7.25464 37080 ft 484 kts 104°
2026-05-08 22:12 47.94756 7.35194 37079 ft 483 kts 104°
2026-05-08 22:13 47.93117 7.44923 37071 ft 483 kts 105°
2026-05-08 22:13 47.91465 7.54629 37073 ft 483 kts 105°
2026-05-08 22:14 47.89384 7.64132 37076 ft 482 kts 112°
2026-05-08 22:14 47.87011 7.73500 37080 ft 483 kts 112°
2026-05-08 22:15 47.84635 7.82856 37087 ft 483 kts 112°
2026-05-08 22:15 47.82244 7.92212 37096 ft 483 kts 112°
2026-05-08 22:16 47.79855 8.01563 37097 ft 484 kts 112°
2026-05-08 22:16 47.77473 8.10846 37108 ft 484 kts 112°
2026-05-08 22:17 47.75062 8.20191 37104 ft 484 kts 112°
2026-05-08 22:17 47.72641 8.29524 37110 ft 484 kts 112°
2026-05-08 22:18 47.70214 8.38864 37106 ft 484 kts 112°
2026-05-08 22:18 47.67827 8.48217 37109 ft 485 kts 111°
2026-05-08 22:19 47.65681 8.57706 37108 ft 485 kts 109°
2026-05-08 22:19 47.63619 8.67235 37111 ft 485 kts 109°
2026-05-08 22:20 47.61502 8.76720 37107 ft 484 kts 110°
2026-05-08 22:20 47.59320 8.86180 37121 ft 484 kts 110°
2026-05-08 22:21 47.57133 8.95618 37111 ft 484 kts 110°
2026-05-08 22:21 47.54953 9.05064 37105 ft 484 kts 110°
2026-05-08 22:22 47.52786 9.14442 37092 ft 485 kts 110°
2026-05-08 22:22 47.50595 9.23866 37090 ft 485 kts 110°
2026-05-08 22:23 47.48391 9.33289 37093 ft 485 kts 110°
2026-05-08 22:23 47.46172 9.42705 37095 ft 484 kts 110°
2026-05-08 22:24 47.43949 9.52097 37093 ft 484 kts 110°
2026-05-08 22:24 47.41725 9.61487 37092 ft 484 kts 111°
2026-05-08 22:25 47.40023 9.71099 37091 ft 485 kts 102°
2026-05-08 22:25 47.38683 9.80854 37093 ft 485 kts 102°
2026-05-08 22:26 47.37331 9.90615 37090 ft 485 kts 103°
2026-05-08 22:26 47.35977 10.00294 37093 ft 485 kts 102°
2026-05-08 22:27 47.34602 10.10034 37097 ft 485 kts 103°
2026-05-08 22:27 47.33296 10.19220 37102 ft 485 kts 103°
2026-05-08 22:28 47.31887 10.29110 37102 ft 485 kts 103°
2026-05-08 22:28 47.30490 10.38843 37104 ft 485 kts 103°
2026-05-08 22:29 47.29082 10.48581 37112 ft 485 kts 103°
2026-05-08 22:29 47.27662 10.58303 37116 ft 485 kts 103°
2026-05-08 22:30 47.26230 10.68019 37117 ft 485 kts 103°
2026-05-08 22:30 47.24797 10.77733 37124 ft 485 kts 103°
2026-05-08 22:31 47.23360 10.87437 37122 ft 485 kts 103°
2026-05-08 22:31 47.21914 10.97133 37122 ft 485 kts 104°
2026-05-08 22:32 47.20471 11.06753 37121 ft 485 kts 104°
2026-05-08 22:32 47.19011 11.16418 37117 ft 484 kts 104°
2026-05-08 22:33 47.17540 11.26084 37111 ft 484 kts 104°
2026-05-08 22:33 47.16054 11.35753 37108 ft 484 kts 104°
2026-05-08 22:34 47.14564 11.45411 37108 ft 485 kts 104°
2026-05-08 22:34 47.13067 11.55068 37107 ft 485 kts 104°
2026-05-08 22:35 47.11573 11.64715 37100 ft 485 kts 104°
2026-05-08 22:35 47.10064 11.74353 37107 ft 485 kts 104°
2026-05-08 22:36 47.08532 11.84006 37106 ft 485 kts 106°
2026-05-08 22:36 47.06013 11.93123 37103 ft 482 kts 118°
2026-05-08 22:37 47.03055 12.01941 37115 ft 482 kts 118°
2026-05-08 22:37 47.00130 12.10716 37141 ft 482 kts 118°
2026-05-08 22:38 46.97176 12.19534 37155 ft 482 kts 118°
2026-05-08 22:38 46.94210 12.28329 37169 ft 481 kts 118°
2026-05-08 22:39 46.91235 12.37097 37176 ft 481 kts 118°
2026-05-08 22:39 46.88255 12.45857 37167 ft 481 kts 119°
2026-05-08 22:40 46.85270 12.54597 37155 ft 481 kts 119°
2026-05-08 22:40 46.82283 12.63352 37152 ft 481 kts 119°
2026-05-08 22:41 46.79285 12.72095 37130 ft 481 kts 119°
2026-05-08 22:41 46.76285 12.80804 37126 ft 480 kts 119°
2026-05-08 22:42 46.73284 12.89501 37119 ft 480 kts 119°
2026-05-08 22:42 46.70272 12.98183 37116 ft 480 kts 120°
2026-05-08 22:43 46.67251 13.06859 37112 ft 480 kts 120°
2026-05-08 22:43 46.64231 13.15529 37108 ft 480 kts 120°
2026-05-08 22:44 46.61195 13.24186 37109 ft 480 kts 120°
2026-05-08 22:44 46.58152 13.32823 37106 ft 480 kts 120°
2026-05-08 22:45 46.55074 13.41445 37106 ft 480 kts 121°
2026-05-08 22:45 46.51832 13.49894 37102 ft 479 kts 123°
2026-05-08 22:46 46.48500 13.58270 37102 ft 479 kts 123°
2026-05-08 22:46 46.45194 13.66654 37101 ft 479 kts 123°
2026-05-08 22:47 46.42467 13.73649 37108 ft 479 kts 122°
2026-05-08 22:47 46.38662 13.83414 37106 ft 478 kts 123°
2026-05-08 22:48 46.35368 13.91793 37094 ft 479 kts 123°
2026-05-08 22:48 46.32595 13.98808 37102 ft 479 kts 123°
2026-05-08 22:49 46.29281 14.07170 37098 ft 479 kts 123°
2026-05-08 22:49 46.24305 14.19701 37093 ft 479 kts 123°
2026-05-08 22:50 46.20987 14.28047 37094 ft 479 kts 123°
2026-05-08 22:50 46.17676 14.36335 37092 ft 479 kts 123°
2026-05-08 22:51 46.14332 14.44658 37095 ft 480 kts 124°
2026-05-08 22:51 46.10983 14.52974 37092 ft 480 kts 124°
2026-05-08 22:52 46.07628 14.61289 37097 ft 480 kts 124°
2026-05-08 22:52 46.04267 14.69594 37091 ft 480 kts 124°
2026-05-08 22:53 46.00902 14.77887 37097 ft 480 kts 124°
2026-05-08 22:53 45.97528 14.86184 37092 ft 480 kts 124°
2026-05-08 22:54 45.94149 14.94465 37092 ft 480 kts 124°
2026-05-08 22:54 45.90763 15.02742 37088 ft 480 kts 124°
2026-05-08 22:55 45.87368 15.11008 37086 ft 480 kts 124°
2026-05-08 22:55 45.83962 15.19264 37080 ft 481 kts 125°
2026-05-08 22:56 45.80547 15.27506 37087 ft 481 kts 125°
2026-05-08 22:56 45.77075 15.35684 37082 ft 478 kts 130°
2026-05-08 22:57 45.73003 15.43165 37079 ft 476 kts 133°
2026-05-08 22:57 45.68898 15.50619 37078 ft 477 kts 133°
2026-05-08 22:58 45.64798 15.58066 37075 ft 477 kts 133°
2026-05-08 22:58 45.60692 15.65508 37074 ft 477 kts 133°
2026-05-08 22:59 45.56573 15.72944 37066 ft 478 kts 134°
2026-05-08 22:59 45.52446 15.80353 37083 ft 475 kts 131°
2026-05-08 23:00 45.48326 15.87737 37103 ft 475 kts 131°
2026-05-08 23:00 45.44210 15.95106 37103 ft 474 kts 131°
2026-05-08 23:01 45.40103 16.02440 37084 ft 473 kts 131°
2026-05-08 23:01 45.35997 16.09755 37079 ft 473 kts 131°
2026-05-08 23:02 45.31894 16.17053 37096 ft 472 kts 131°
2026-05-08 23:02 45.27779 16.24326 37081 ft 472 kts 131°
2026-05-08 23:03 45.23665 16.31578 37075 ft 472 kts 131°
2026-05-08 23:03 45.19553 16.38828 37077 ft 471 kts 131°
2026-05-08 23:04 45.15439 16.46053 37074 ft 471 kts 131°
2026-05-08 23:04 45.11325 16.53210 37072 ft 471 kts 132°
2026-05-08 23:05 45.07150 16.60357 37068 ft 471 kts 133°
2026-05-08 23:05 45.02971 16.67493 37076 ft 471 kts 132°
2026-05-08 23:06 44.98797 16.74624 37071 ft 471 kts 132°
2026-05-08 23:06 44.94610 16.81761 37069 ft 471 kts 133°
2026-05-08 23:07 44.90422 16.88883 37071 ft 471 kts 133°
2026-05-08 23:07 44.86297 16.96080 37067 ft 474 kts 126°
2026-05-08 23:08 44.83470 17.04476 37066 ft 479 kts 107°
2026-05-08 23:08 44.82307 17.13714 37058 ft 480 kts 99°
2026-05-08 23:09 44.81318 17.23022 37062 ft 480 kts 99°
2026-05-08 23:09 44.80309 17.32318 37069 ft 480 kts 99°
2026-05-08 23:10 44.79293 17.41601 37075 ft 480 kts 99°
2026-05-08 23:10 44.78281 17.50874 37081 ft 479 kts 99°
2026-05-08 23:11 44.77261 17.60131 37082 ft 478 kts 100°
2026-05-08 23:11 44.76238 17.69371 37083 ft 478 kts 99°
2026-05-08 23:12 44.75210 17.78601 37081 ft 477 kts 100°
2026-05-08 23:12 44.74167 17.87814 37080 ft 477 kts 100°
2026-05-08 23:13 44.73131 17.96968 37076 ft 476 kts 100°
2026-05-08 23:13 44.72089 18.06167 37077 ft 476 kts 100°
2026-05-08 23:14 44.71040 18.15353 37078 ft 475 kts 100°
2026-05-08 23:14 44.69981 18.24529 37072 ft 475 kts 101°
2026-05-08 23:15 44.68909 18.33693 37073 ft 475 kts 101°
2026-05-08 23:15 44.67831 18.42842 37076 ft 474 kts 101°
2026-05-08 23:16 44.66741 18.51987 37087 ft 474 kts 101°
2026-05-08 23:16 44.65659 18.61123 37000 ft 474 kts 101°
2026-05-08 23:17 44.65115 18.65687 36732 ft 473 kts 101°
2026-05-08 23:17 44.64568 18.70232 36479 ft 472 kts 101°
2026-05-08 23:17 44.64018 18.74771 36223 ft 471 kts 101°
2026-05-08 23:17 44.63469 18.79306 35505 ft 474 kts 101°
2026-05-08 23:18 44.62917 18.83844 34613 ft 480 kts 102°
2026-05-08 23:18 44.62353 18.88468 33773 ft 479 kts 102°
2026-05-08 23:18 44.61792 18.93082 32615 ft 481 kts 101°
2026-05-08 23:18 44.61227 18.97696 31573 ft 479 kts 101°
2026-05-08 23:19 44.60660 19.02303 30566 ft 478 kts 101°
2026-05-08 23:19 44.60102 19.06852 29969 ft 467 kts 100°
2026-05-08 23:19 44.59837 19.11348 29292 ft 458 kts 91°
2026-05-08 23:19 44.60058 19.15760 28674 ft 449 kts 84°
2026-05-08 23:20 44.60410 19.20082 28059 ft 444 kts 84°
2026-05-08 23:20 44.60751 19.24371 27445 ft 440 kts 84°
2026-05-08 23:20 44.61087 19.28624 26837 ft 437 kts 84°
2026-05-08 23:20 44.61606 19.32800 26229 ft 434 kts 76°
2026-05-08 23:21 44.62615 19.36771 25619 ft 431 kts 65°
2026-05-08 23:21 44.64089 19.40428 25014 ft 429 kts 56°
2026-05-08 23:21 44.65907 19.43735 24422 ft 426 kts 51°
2026-05-08 23:21 44.67744 19.46983 23848 ft 423 kts 52°
2026-05-08 23:22 44.69557 19.50214 23221 ft 420 kts 52°
2026-05-08 23:22 44.71325 19.53378 22677 ft 414 kts 52°
2026-05-08 23:22 44.73096 19.56552 22160 ft 409 kts 52°
2026-05-08 23:22 44.74842 19.59681 21642 ft 405 kts 52°
2026-05-08 23:23 44.76573 19.62783 21136 ft 401 kts 52°
2026-05-08 23:23 44.78288 19.65862 20632 ft 397 kts 53°
2026-05-08 23:23 44.79983 19.68913 20108 ft 394 kts 53°
2026-05-08 23:23 44.81663 19.71940 19589 ft 390 kts 53°
2026-05-08 23:24 44.83332 19.74946 19045 ft 388 kts 53°
2026-05-08 23:24 44.84993 19.77937 18504 ft 385 kts 53°
2026-05-08 23:24 44.86429 19.80794 17936 ft 381 kts 63°
2026-05-08 23:24 44.87373 19.84240 17385 ft 374 kts 79°
2026-05-08 23:25 44.87613 19.87841 16828 ft 366 kts 94°
2026-05-08 23:25 44.87180 19.91338 16278 ft 360 kts 109°
2026-05-08 23:25 44.86155 19.94475 15747 ft 354 kts 122°
2026-05-08 23:25 44.84862 19.97412 15199 ft 351 kts 123°
2026-05-08 23:26 44.83579 20.00319 14671 ft 348 kts 123°
2026-05-08 23:26 44.82309 20.03204 14121 ft 345 kts 123°
2026-05-08 23:26 44.81047 20.06066 13577 ft 342 kts 122°
2026-05-08 23:26 44.79795 20.08902 13017 ft 339 kts 122°
2026-05-08 23:27 44.78557 20.11714 12483 ft 335 kts 122°
2026-05-08 23:27 44.77333 20.14493 11864 ft 334 kts 122°
2026-05-08 23:27 44.76111 20.17265 11320 ft 332 kts 121°
2026-05-08 23:27 44.74902 20.20012 10880 ft 326 kts 121°
2026-05-08 23:28 44.73748 20.22623 10725 ft 303 kts 121°
2026-05-08 23:28 44.72656 20.25083 10317 ft 292 kts 121°
2026-05-08 23:28 44.71585 20.27487 9755 ft 288 kts 121°
2026-05-08 23:28 44.70880 20.29069 9160 ft 292 kts 121°
2026-05-08 23:29 44.69785 20.31528 8122 ft 302 kts 121°
2026-05-08 23:29 44.68658 20.34065 7158 ft 308 kts 121°
2026-05-08 23:29 44.67535 20.36630 6233 ft 311 kts 118°
2026-05-08 23:29 44.66953 20.39538 5165 ft 313 kts 89°
2026-05-08 23:30 44.67493 20.42469 4103 ft 314 kts 58°
2026-05-08 23:30 44.68968 20.44629 3599 ft 298 kts 35°
2026-05-08 23:30 44.70653 20.46104 3477 ft 274 kts 28°
2026-05-08 23:30 44.72318 20.47193 3241 ft 257 kts 12°
2026-05-08 23:31 44.74006 20.46942 3125 ft 237 kts 335°
2026-05-08 23:31 44.75142 20.45524 2930 ft 203 kts 306°
2026-05-08 23:31 44.75829 20.43952 2509 ft 176 kts 302°
2026-05-08 23:31 44.76433 20.42597 2217 ft 156 kts 303°
2026-05-08 23:32 44.76979 20.41380 1991 ft 141 kts 303°
2026-05-08 23:32 44.77491 20.40238 1782 ft 135 kts 303°
2026-05-08 23:32 44.77988 20.39126 1586 ft 133 kts 303°
2026-05-08 23:32 44.78478 20.38030 1399 ft 132 kts 303°
2026-05-08 23:33 44.78970 20.36945 1219 ft 131 kts 302°
2026-05-08 23:33 44.79458 20.35862 1030 ft 131 kts 301°
2026-05-08 23:33 44.79938 20.34765 805 ft 131 kts 299°
2026-05-08 23:33 44.80413 20.33685 578 ft 131 kts 300°
2026-05-08 23:34 44.80896 20.32594 385 ft 131 kts 300°
2026-05-08 23:34 44.81357 20.31548 307 ft 114 kts 302°
2026-05-08 23:34 44.81691 20.30797 309 ft 66 kts 303°
2026-05-08 23:34 44.81853 20.30439 307 ft 12 kts 302°
2026-05-08 23:35 44.81873 20.30322 306 ft 14 kts 243°
2026-05-08 23:35 44.81838 20.30214 306 ft 10 kts 298°
2026-05-08 23:35 44.81882 20.30117 308 ft 13 kts 304°
2026-05-08 23:35 44.81937 20.29998 306 ft 16 kts 302°
2026-05-08 23:36 44.81999 20.29854 308 ft 18 kts 300°
2026-05-08 23:36 44.82059 20.29717 309 ft 14 kts 302°
2026-05-08 23:36 44.82108 20.29605 309 ft 14 kts 299°
2026-05-08 23:36 44.82083 20.29484 307 ft 13 kts 271°
2026-05-08 23:37 44.82121 20.29389 308 ft 11 kts 304°
2026-05-08 23:37 44.82138 20.29307 307 ft 9 kts 239°
2026-05-08 23:37 44.82128 20.29270 307 ft 2 kts 252°
2026-05-08 23:37 44.82106 20.29236 307 ft 7 kts 211°
2026-05-08 23:38 44.82098 20.29229 307 ft 0 kts 211°